Location: ??
(35.5090°N, 139.6783°E)
Time: 01:08:38
(UTC+00:00)

Cosmos 2173 Rocket - Visible Passes

Search period start: 12 February 2026 00:00
Search period end: 22 February 2026 00:00
Orbit: 944 x 999 km, 82.9° (Epoch: 11 February)

Date Brightness Start Highest point End Pass type
(mag) Time Alt. Az. Time Alt. Az. Time Alt. Az.
12 Feb 5.2 08:49:47 10° NNW 08:55:45 48° W 09:01:36 10° SSW visible
12 Feb 4.8 20:29:43 10° SSE 20:35:54 56° E 20:42:06 10° NNE visible
13 Feb 6.4 09:14:39 10° NNW 09:19:38 26° W 09:24:33 10° SW visible
13 Feb 7.1 19:13:10 10° ESE 19:15:36 12° E 19:18:03 10° ENE visible
13 Feb 4.1 20:53:38 10° S 20:59:58 81° W 21:06:23 10° N visible
14 Feb 7.1 09:40:36 10° NW 09:43:22 13° W 09:46:08 10° WSW visible
14 Feb 6.3 19:34:25 10° SE 19:39:20 24° E 19:44:16 10° NE visible
15 Feb 5.2 19:57:16 10° SSE 20:03:13 44° E 20:09:13 10° NNE visible
16 Feb 6.0 08:41:34 10° NNW 08:47:00 33° W 08:52:21 10° SSW visible
16 Feb 4.2 20:20:55 10° S 20:27:15 81° E 20:33:38 10° N visible
17 Feb 6.9 09:06:56 10° NW 09:10:48 17° W 09:14:38 10° WSW visible
17 Feb 6.6 19:02:30 10° SE 19:06:44 19° E 19:10:59 10° NE visible
17 Feb 4.1 20:45:14 10° SSW 20:51:27 56° W 20:57:42 10° N visible
18 Feb 5.6 19:24:55 10° SSE 19:30:34 35° E 19:36:14 10° NNE visible
19 Feb 4.5 19:48:17 10° S 19:54:33 65° E 20:00:50 10° NNE visible
20 Feb 6.8 18:30:55 10° ESE 18:34:10 15° E 18:37:25 10° NE visible
20 Feb 4.0 20:12:20 10° SSW 20:18:40 71° W 20:25:02 10° N visible
21 Feb 7.3 09:00:17 10° WNW 09:01:54 11° W 09:03:29 10° W visible
21 Feb 5.9 18:52:43 10° SE 18:57:56 28° E 19:03:10 10° NNE visible
21 Feb 4.5 20:37:06 10° SW 20:42:57 39° WNW 20:48:50 10° N visible
